Time,TemperatureF,DewpointF,PressureIn,WindDirection,WindDirectionDegrees,WindSpeedMPH,WindSpeedGustMPH,Humidity,HourlyPrecipIn,Conditions,Clouds,dailyrainin,SolarRadiationWatts/m^2,SoftwareType,DateUTC
2013-02-08 00:08:00,45.3,43.0,30.07,North,11,2.0,6.0,92,0.01,,,0.00,0,weatherlink.com 1.10,2013-02-08 08:08:00,
2013-02-08 00:20:00,45.2,43.0,30.06,North,11,0.0,2.0,92,0.01,,,0.00,0,weatherlink.com 1.10,2013-02-08 08:20:00,
2013-02-08 00:35:00,45.2,43.0,30.06,North,11,0.0,1.0,92,0.00,,,0.00,0,weatherlink.com 1.10,2013-02-08 08:35:00,
2013-02-08 00:50:00,45.1,43.0,30.05,North,11,1.0,3.0,93,0.00,,,0.00,0,weatherlink.com 1.10,2013-02-08 08:50:00,
2013-02-08 01:05:00,44.9,43.0,30.05,SSE,162,2.0,5.0,93,0.00,,,0.00,0,weatherlink.com 1.10,2013-02-08 09:05:00,
2013-02-08 01:20:00,44.6,43.0,30.05,SSW,196,1.0,12.0,92,0.05,,,0.05,0,weatherlink.com 1.10,2013-02-08 09:20:00,
2013-02-08 01:35:00,44.3,42.0,30.04,SW,234,0.0,5.0,92,0.06,,,0.06,0,weatherlink.com 1.10,2013-02-08 09:35:00,
2013-02-08 01:50:00,44.0,42.0,30.03,SW,234,0.0,2.0,92,0.06,,,0.06,0,weatherlink.com 1.10,2013-02-08 09:50:00,
2013-02-08 02:05:00,43.6,42.0,30.02,SW,234,0.0,1.0,92,0.05,,,0.06,0,weatherlink.com 1.10,2013-02-08 10:05:00,
2013-02-08 02:20:00,43.5,42.0,30.02,SW,234,0.0,1.0,93,0.01,,,0.06,0,weatherlink.com 1.10,2013-02-08 10:20:00,
2013-02-08 02:35:00,43.4,42.0,30.02,SW,234,0.0,0.0,93,0.00,,,0.06,0,weatherlink.com 1.10,2013-02-08 10:35:00,
2013-02-08 02:50:00,43.6,42.0,30.01,SW,234,1.0,2.0,94,0.02,,,0.08,0,weatherlink.com 1.10,2013-02-08 10:50:00,
2013-02-08 03:05:00,44.0,42.0,30.00,SW,234,0.0,2.0,94,0.02,,,0.08,0,weatherlink.com 1.10,2013-02-08 11:05:00,
2013-02-08 03:20:00,44.2,43.0,30.00,SW,234,0.0,1.0,94,0.02,,,0.08,0,weatherlink.com 1.10,2013-02-08 11:20:00,
2013-02-08 03:35:00,43.8,42.0,30.00,SW,234,0.0,2.0,94,0.02,,,0.08,0,weatherlink.com 1.10,2013-02-08 11:35:00,
2013-02-08 03:50:00,43.8,42.0,30.00,SW,232,2.0,2.0,94,0.00,,,0.08,0,weatherlink.com 1.10,2013-02-08 11:50:00,
2013-02-08 04:05:00,43.5,42.0,30.00,SW,231,0.0,2.0,94,0.00,,,0.08,0,weatherlink.com 1.10,2013-02-08 12:05:00,
2013-02-08 04:20:00,43.4,42.0,29.99,SW,231,1.0,1.0,94,0.00,,,0.08,0,weatherlink.com 1.10,2013-02-08 12:20:00,
2013-02-08 04:35:00,43.4,42.0,29.99,SW,231,0.0,1.0,94,0.00,,,0.08,0,weatherlink.com 1.10,2013-02-08 12:35:00,
2013-02-08 04:50:00,43.4,42.0,29.99,SW,231,0.0,0.0,94,0.01,,,0.09,0,weatherlink.com 1.10,2013-02-08 12:50:00,
2013-02-08 05:05:00,43.5,42.0,29.99,SW,231,0.0,1.0,94,0.01,,,0.09,0,weatherlink.com 1.10,2013-02-08 13:05:00,
2013-02-08 05:20:00,43.7,42.0,29.99,SW,231,0.0,1.0,94,0.03,,,0.11,0,weatherlink.com 1.10,2013-02-08 13:20:00,
2013-02-08 05:35:00,44.0,43.0,29.99,SW,231,0.0,3.0,95,0.04,,,0.12,0,weatherlink.com 1.10,2013-02-08 13:35:00,
2013-02-08 05:50:00,43.6,42.0,29.99,West,264,0.0,4.0,94,0.06,,,0.15,0,weatherlink.com 1.10,2013-02-08 13:50:00,
2013-02-08 06:05:00,43.5,42.0,29.99,NW,325,0.0,6.0,94,0.08,,,0.17,0,weatherlink.com 1.10,2013-02-08 14:05:00,
2013-02-08 06:21:00,43.2,41.0,29.99,NW,325,0.0,1.0,93,0.08,,,0.19,0,weatherlink.com 1.10,2013-02-08 14:21:00,
2013-02-08 06:35:00,42.8,41.0,30.00,NW,325,0.0,1.0,94,0.07,,,0.19,0,weatherlink.com 1.10,2013-02-08 14:35:00,
2013-02-08 06:50:00,42.6,41.0,30.00,NW,325,0.0,0.0,94,0.04,,,0.19,0,weatherlink.com 1.10,2013-02-08 14:50:00,
2013-02-08 07:05:00,42.8,42.0,29.99,NW,325,0.0,2.0,95,0.02,,,0.19,0,weatherlink.com 1.10,2013-02-08 15:05:00,
2013-02-08 07:20:00,43.1,42.0,30.00,NW,326,1.0,3.0,95,0.00,,,0.19,7,weatherlink.com 1.10,2013-02-08 15:20:00,
2013-02-08 07:35:00,43.1,42.0,30.00,NW,326,0.0,2.0,94,0.00,,,0.19,19,weatherlink.com 1.10,2013-02-08 15:35:00,
2013-02-08 07:50:00,43.3,42.0,30.00,NNW,327,0.0,4.0,95,0.01,,,0.20,11,weatherlink.com 1.10,2013-02-08 15:50:00,
2013-02-08 08:05:00,43.5,42.0,30.01,NNW,327,1.0,1.0,95,0.01,,,0.20,30,weatherlink.com 1.10,2013-02-08 16:05:00,
2013-02-08 08:20:00,43.7,42.0,30.01,NNW,327,0.0,2.0,95,0.01,,,0.20,32,weatherlink.com 1.10,2013-02-08 16:20:00,
2013-02-08 08:35:00,43.9,43.0,30.01,NNW,327,0.0,3.0,95,0.02,,,0.21,102,weatherlink.com 1.10,2013-02-08 16:35:00,
2013-02-08 08:51:00,44.4,43.0,30.02,NNW,327,0.0,2.0,95,0.02,,,0.22,111,weatherlink.com 1.10,2013-02-08 16:51:00,
2013-02-08 09:05:00,45.0,44.0,30.02,NNW,328,0.0,2.0,95,0.02,,,0.22,107,weatherlink.com 1.10,2013-02-08 17:05:00,
2013-02-08 09:20:00,45.0,43.0,30.02,East,87,0.0,5.0,93,0.02,,,0.22,91,weatherlink.com 1.10,2013-02-08 17:20:00,
2013-02-08 09:39:00,46.7,45.0,30.02,East,98,0.0,2.0,94,0.01,,,0.22,404,weatherlink.com 1.10,2013-02-08 17:39:00,
2013-02-08 09:51:00,48.4,46.0,30.03,East,98,0.0,2.0,92,0.00,,,0.22,464,weatherlink.com 1.10,2013-02-08 17:51:00,
2013-02-08 10:06:00,48.9,45.0,30.03,East,98,0.0,3.0,86,0.00,,,0.22,501,weatherlink.com 1.10,2013-02-08 18:06:00,
2013-02-08 10:21:00,49.8,45.0,30.04,East,79,1.0,4.0,84,0.00,,,0.22,155,weatherlink.com 1.10,2013-02-08 18:21:00,
2013-02-08 10:36:00,49.9,44.0,30.04,North,11,2.0,6.0,81,0.00,,,0.22,661,weatherlink.com 1.10,2013-02-08 18:36:00,
2013-02-08 10:51:00,51.1,45.0,30.04,NE,41,0.0,8.0,81,0.00,,,0.22,645,weatherlink.com 1.10,2013-02-08 18:51:00,
2013-02-08 11:06:00,52.4,45.0,30.04,North,355,3.0,6.0,77,0.00,,,0.22,626,weatherlink.com 1.10,2013-02-08 19:06:00,
2013-02-08 11:21:00,53.5,45.0,30.04,North,5,0.0,7.0,74,0.00,,,0.22,668,weatherlink.com 1.10,2013-02-08 19:21:00,
2013-02-08 11:36:00,54.8,46.0,30.04,NNE,24,3.0,7.0,72,0.00,,,0.22,700,weatherlink.com 1.10,2013-02-08 19:36:00,
2013-02-08 11:51:00,54.9,44.0,30.04,North,5,2.0,7.0,67,0.00,,,0.22,698,weatherlink.com 1.10,2013-02-08 19:51:00,
2013-02-08 12:06:00,54.6,45.0,30.03,NNW,344,0.0,8.0,69,0.00,,,0.22,740,weatherlink.com 1.10,2013-02-08 20:06:00,
2013-02-08 12:21:00,56.6,46.0,30.03,NNE,22,0.0,6.0,67,0.00,,,0.22,752,weatherlink.com 1.10,2013-02-08 20:21:00,
2013-02-08 12:36:00,56.3,45.0,30.02,North,5,6.0,6.0,66,0.00,,,0.22,269,weatherlink.com 1.10,2013-02-08 20:36:00,
2013-02-08 12:51:00,55.3,44.0,30.02,NNE,19,3.0,6.0,67,0.00,,,0.22,392,weatherlink.com 1.10,2013-02-08 20:51:00,
2013-02-08 13:06:00,56.2,45.0,30.02,North,350,0.0,6.0,66,0.00,,,0.22,752,weatherlink.com 1.10,2013-02-08 21:06:00,
2013-02-08 13:21:00,57.5,44.0,30.02,NNE,21,3.0,6.0,62,0.00,,,0.22,682,weatherlink.com 1.10,2013-02-08 21:21:00,
2013-02-08 13:36:00,58.1,43.0,30.01,NE,35,1.0,7.0,58,0.00,,,0.22,673,weatherlink.com 1.10,2013-02-08 21:36:00,
2013-02-08 13:51:00,58.3,44.0,30.01,NNE,27,7.0,9.0,59,0.00,,,0.22,610,weatherlink.com 1.10,2013-02-08 21:51:00,
2013-02-08 14:06:00,58.8,44.0,30.01,NW,318,3.0,4.0,59,0.00,,,0.22,594,weatherlink.com 1.10,2013-02-08 22:06:00,
2013-02-08 14:22:00,58.6,44.0,30.01,NNW,338,5.0,5.0,58,0.00,,,0.22,642,weatherlink.com 1.10,2013-02-08 22:22:00,
2013-02-08 14:36:00,58.2,43.0,30.01,West,265,2.0,7.0,58,0.00,,,0.22,524,weatherlink.com 1.10,2013-02-08 22:36:00,
2013-02-08 14:51:00,57.6,44.0,30.01,NNE,13,2.0,8.0,60,0.00,,,0.22,503,weatherlink.com 1.10,2013-02-08 22:51:00,
2013-02-08 15:06:00,57.8,44.0,30.01,NNW,331,0.0,6.0,60,0.00,,,0.22,445,weatherlink.com 1.10,2013-02-08 23:06:00,
2013-02-08 15:21:00,57.2,44.0,30.01,West,276,2.0,8.0,61,0.00,,,0.22,408,weatherlink.com 1.10,2013-02-08 23:21:00,
2013-02-08 15:36:00,56.7,43.0,30.02,NNE,13,0.0,6.0,60,0.00,,,0.22,364,weatherlink.com 1.10,2013-02-08 23:36:00,
2013-02-08 15:51:00,56.6,44.0,30.02,NNE,19,3.0,6.0,62,0.00,,,0.22,316,weatherlink.com 1.10,2013-02-08 23:51:00,
2013-02-08 16:06:00,56.7,44.0,30.02,NNW,329,3.0,8.0,62,0.00,,,0.22,265,weatherlink.com 1.10,2013-02-09 00:06:00,
2013-02-08 16:21:00,56.5,44.0,30.02,East,88,5.0,7.0,63,0.00,,,0.22,209,weatherlink.com 1.10,2013-02-09 00:21:00,
2013-02-08 16:36:00,56.1,44.0,30.01,NNE,13,0.0,6.0,64,0.00,,,0.22,149,weatherlink.com 1.10,2013-02-09 00:36:00,
2013-02-08 16:51:00,55.2,44.0,30.02,North,360,1.0,6.0,65,0.00,,,0.22,95,weatherlink.com 1.10,2013-02-09 00:51:00,
2013-02-08 17:06:00,53.8,42.0,30.02,North,355,3.0,5.0,65,0.00,,,0.22,51,weatherlink.com 1.10,2013-02-09 01:06:00,
2013-02-08 17:21:00,52.7,42.0,30.02,NNE,32,1.0,6.0,68,0.00,,,0.22,23,weatherlink.com 1.10,2013-02-09 01:21:00,
2013-02-08 17:36:00,51.3,42.0,30.02,NW,321,5.0,7.0,71,0.00,,,0.22,7,weatherlink.com 1.10,2013-02-09 01:36:00,
2013-02-08 17:51:00,49.7,41.0,30.02,North,5,2.0,7.0,73,0.00,,,0.22,0,weatherlink.com 1.10,2013-02-09 01:51:00,
2013-02-08 18:07:00,49.0,41.0,30.02,NNE,17,2.0,7.0,75,0.00,,,0.22,0,weatherlink.com 1.10,2013-02-09 02:07:00,
2013-02-08 18:22:00,48.7,42.0,30.02,WSW,252,5.0,7.0,77,0.00,,,0.22,0,weatherlink.com 1.10,2013-02-09 02:22:00,
2013-02-08 18:37:00,48.4,42.0,30.03,NNE,13,4.0,5.0,78,0.00,,,0.22,0,weatherlink.com 1.10,2013-02-09 02:37:00,
2013-02-08 18:52:00,48.2,42.0,30.03,North,355,2.0,5.0,80,0.00,,,0.22,0,weatherlink.com 1.10,2013-02-09 02:52:00,
2013-02-08 19:07:00,48.3,43.0,30.03,North,355,2.0,5.0,81,0.00,,,0.22,0,weatherlink.com 1.10,2013-02-09 03:07:00,
2013-02-08 19:22:00,48.2,43.0,30.03,North,5,2.0,4.0,82,0.00,,,0.22,0,weatherlink.com 1.10,2013-02-09 03:22:00,
2013-02-08 19:37:00,48.1,43.0,30.03,NNE,13,0.0,5.0,83,0.00,,,0.22,0,weatherlink.com 1.10,2013-02-09 03:37:00,
2013-02-08 19:52:00,48.1,44.0,30.03,North,5,0.0,7.0,84,0.00,,,0.22,0,weatherlink.com 1.10,2013-02-09 03:52:00,
2013-02-08 20:07:00,47.9,44.0,30.03,North,5,2.0,3.0,85,0.00,,,0.22,0,weatherlink.com 1.10,2013-02-09 04:07:00,
2013-02-08 20:22:00,47.8,44.0,30.03,NNW,348,1.0,5.0,85,0.00,,,0.22,0,weatherlink.com 1.10,2013-02-09 04:22:00,
2013-02-08 20:37:00,47.7,43.0,30.03,North,5,0.0,6.0,85,0.00,,,0.22,0,weatherlink.com 1.10,2013-02-09 04:37:00,
2013-02-08 20:52:00,47.6,43.0,30.03,North,5,0.0,4.0,85,0.00,,,0.22,0,weatherlink.com 1.10,2013-02-09 04:52:00,
2013-02-08 21:07:00,47.3,43.0,30.04,North,5,0.0,3.0,85,0.00,,,0.22,0,weatherlink.com 1.10,2013-02-09 05:07:00,
2013-02-08 21:22:00,47.2,43.0,30.04,North,5,0.0,3.0,86,0.00,,,0.22,0,weatherlink.com 1.10,2013-02-09 05:22:00,
2013-02-08 21:37:00,47.2,44.0,30.04,North,5,2.0,3.0,88,0.00,,,0.22,0,weatherlink.com 1.10,2013-02-09 05:37:00,
2013-02-08 21:52:00,46.7,43.0,30.04,North,5,0.0,1.0,88,0.00,,,0.22,0,weatherlink.com 1.10,2013-02-09 05:52:00,
2013-02-08 22:07:00,46.3,43.0,30.04,North,5,0.0,4.0,89,0.00,,,0.22,0,weatherlink.com 1.10,2013-02-09 06:07:00,
2013-02-08 22:22:00,45.9,43.0,30.04,North,5,0.0,0.0,89,0.00,,,0.22,0,weatherlink.com 1.10,2013-02-09 06:22:00,
2013-02-08 22:37:00,45.6,43.0,30.04,North,5,0.0,1.0,90,0.00,,,0.22,0,weatherlink.com 1.10,2013-02-09 06:37:00,
2013-02-08 22:52:00,45.2,43.0,30.04,North,5,0.0,1.0,90,0.00,,,0.22,0,weatherlink.com 1.10,2013-02-09 06:52:00,
2013-02-08 23:07:00,45.0,42.0,30.04,North,5,0.0,1.0,90,0.00,,,0.22,0,weatherlink.com 1.10,2013-02-09 07:07:00,
2013-02-08 23:22:00,44.9,42.0,30.04,North,5,0.0,2.0,90,0.00,,,0.22,0,weatherlink.com 1.10,2013-02-09 07:22:00,
2013-02-08 23:37:00,44.8,42.0,30.04,North,5,0.0,3.0,91,0.00,,,0.22,0,weatherlink.com 1.10,2013-02-09 07:37:00,
2013-02-08 23:52:00,44.8,42.0,30.03,North,5,0.0,1.0,91,0.00,,,0.22,0,weatherlink.com 1.10,2013-02-09 07:52:00,